Previsão horária em Lisboa

Hoje, 24 Novembro, Terça-feira

Tempo Temperatura Precipitação Vento Pressão Humidade
00:00 +12°C° 0 mm 0 m/s 764 mmHg 74%
01:00 +13°C° 0 mm 1 m/s 763 mmHg 75%
02:00 +12°C° 0 mm 1 m/s 763 mmHg 77%
03:00 +12°C° 0 mm 1 m/s 763 mmHg 78%
04:00 +12°C° 0 mm 1 m/s 763 mmHg 79%
05:00 +12°C° 0 mm 1 m/s 763 mmHg 80%
06:00 +12°C° 0 mm 1 m/s 763 mmHg 79%
07:00 +13°C° 0 mm 1 m/s 763 mmHg 77%
08:00 +14°C° 0 mm 1 m/s 763 mmHg 75%
09:00 +15°C° 0 mm 2 m/s 763 mmHg 72%
10:00 +16°C° 0 mm 2 m/s 763 mmHg 69%
11:00 +18°C° 0 mm 2 m/s 762 mmHg 67%
12:00 +18°C° 0.1 mm 3 m/s 762 mmHg 66%
13:00 +18°C° 0.1 mm 3 m/s 761 mmHg 66%
14:00 +18°C° 0.1 mm 4 m/s 761 mmHg 66%
15:00 +17°C° 0.1 mm 4 m/s 760 mmHg 70%
16:00 +17°C° 0.1 mm 4 m/s 760 mmHg 74%
17:00 +15°C° 0.1 mm 4 m/s 760 mmHg 78%
18:00 +15°C° 0.1 mm 4 m/s 760 mmHg 78%
19:00 +15°C° 0.1 mm 5 m/s 759 mmHg 78%
20:00 +15°C° 0.1 mm 5 m/s 759 mmHg 78%
21:00 +15°C° 0.4 mm 5 m/s 759 mmHg 79%
22:00 +15°C° 0.4 mm 6 m/s 758 mmHg 81%
23:00 +15°C° 0.4 mm 6 m/s 758 mmHg 82%

Amanhã, 25 Novembro, Quarta-feira

Tempo Temperatura Precipitação Vento Pressão Humidade
00:00 +15°C° 1.4 mm 6 m/s 757 mmHg 84%
01:00 +14°C° 1.4 mm 5 m/s 757 mmHg 87%
02:00 +14°C° 1.4 mm 5 m/s 756 mmHg 90%
03:00 +14°C° 1.7 mm 5 m/s 756 mmHg 90%
04:00 +13°C° 1.7 mm 4 m/s 755 mmHg 90%
05:00 +13°C° 1.7 mm 4 m/s 755 mmHg 90%
06:00 +13°C° 0.7 mm 3 m/s 755 mmHg 89%
07:00 +14°C° 0.7 mm 2 m/s 755 mmHg 88%
08:00 +14°C° 0.7 mm 1 m/s 755 mmHg 87%
09:00 +14°C° 0.2 mm 2 m/s 755 mmHg 83%
10:00 +15°C° 0.2 mm 2 m/s 754 mmHg 79%
11:00 +14°C° 0.2 mm 3 m/s 754 mmHg 75%
12:00 +14°C° 0.5 mm 3 m/s 753 mmHg 74%
13:00 +14°C° 0.5 mm 4 m/s 753 mmHg 72%
14:00 +14°C° 0.5 mm 4 m/s 752 mmHg 71%
15:00 +13°C° 0.5 mm 4 m/s 752 mmHg 75%
16:00 +13°C° 0.5 mm 4 m/s 752 mmHg 78%
17:00 +12°C° 0.5 mm 5 m/s 751 mmHg 81%
18:00 +12°C° 0.6 mm 4 m/s 751 mmHg 82%
19:00 +11°C° 0.6 mm 4 m/s 751 mmHg 83%
20:00 +11°C° 0.6 mm 3 m/s 751 mmHg 84%
21:00 +11°C° 0.9 mm 4 m/s 751 mmHg 84%
22:00 +11°C° 0.9 mm 4 m/s 750 mmHg 85%
23:00 +9°C° 0.9 mm 5 m/s 750 mmHg 85%

Depois de amanhã, 26 Novembro, Quinta-feira

Tempo Temperatura Precipitação Vento Pressão Humidade
00:00 +9°C° 0.8 mm 5 m/s 749 mmHg 86%
01:00 +9°C° 0.8 mm 5 m/s 749 mmHg 87%
02:00 +9°C° 0.8 mm 5 m/s 748 mmHg 87%
03:00 +9°C° 0.4 mm 5 m/s 748 mmHg 89%
04:00 +10°C° 0.4 mm 4 m/s 748 mmHg 90%
05:00 +10°C° 0.4 mm 4 m/s 747 mmHg 92%
06:00 +10°C° 0.7 mm 4 m/s 747 mmHg 91%
07:00 +10°C° 0.7 mm 4 m/s 747 mmHg 91%
08:00 +11°C° 0.7 mm 4 m/s 747 mmHg 91%
09:00 +12°C° 0.4 mm 4 m/s 747 mmHg 82%
10:00 +13°C° 0.4 mm 5 m/s 747 mmHg 74%
11:00 +15°C° 0.4 mm 5 m/s 747 mmHg 65%
12:00 +15°C° 0.1 mm 5 m/s 747 mmHg 65%
13:00 +15°C° 0.1 mm 6 m/s 747 mmHg 64%
14:00 +15°C° 0.1 mm 6 m/s 747 mmHg 64%
15:00 +14°C° 0.2 mm 6 m/s 747 mmHg 68%
16:00 +12°C° 0.2 mm 7 m/s 747 mmHg 73%
17:00 +11°C° 0.2 mm 7 m/s 748 mmHg 78%
18:00 +11°C° 0 mm 7 m/s 748 mmHg 79%
19:00 +11°C° 0 mm 7 m/s 749 mmHg 80%
20:00 +10°C° 0 mm 7 m/s 749 mmHg 81%
21:00 +10°C° 0 mm 7 m/s 749 mmHg 81%
22:00 +10°C° 0 mm 8 m/s 750 mmHg 80%
23:00 +10°C° 0 mm 8 m/s 750 mmHg 80%

27 Novembro, Sexta-feira

Tempo Temperatura Precipitação Vento Pressão Humidade
00:00 +10°C° 0 mm 7 m/s 750 mmHg 80%
01:00 +10°C° 0 mm 7 m/s 751 mmHg 81%
02:00 +9°C° 0 mm 6 m/s 751 mmHg 81%
03:00 +9°C° 0 mm 6 m/s 751 mmHg 82%
04:00 +9°C° 0 mm 6 m/s 751 mmHg 82%
05:00 +8°C° 0 mm 5 m/s 751 mmHg 83%
06:00 +9°C° 0 mm 5 m/s 752 mmHg 81%
07:00 +10°C° 0 mm 4 m/s 752 mmHg 80%
08:00 +10°C° 0 mm 4 m/s 752 mmHg 78%
09:00 +12°C° 0 mm 4 m/s 752 mmHg 73%
10:00 +13°C° 0 mm 4 m/s 753 mmHg 69%
11:00 +15°C° 0 mm 4 m/s 753 mmHg 64%
12:00 +15°C° 0 mm 4 m/s 753 mmHg 63%
13:00 +16°C° 0 mm 5 m/s 753 mmHg 63%
14:00 +16°C° 0 mm 5 m/s 752 mmHg 62%
15:00 +15°C° 0 mm 4 m/s 753 mmHg 67%
16:00 +14°C° 0 mm 4 m/s 753 mmHg 71%
17:00 +13°C° 0 mm 4 m/s 753 mmHg 76%
18:00 +13°C° 0 mm 4 m/s 754 mmHg 78%
19:00 +13°C° 0 mm 4 m/s 754 mmHg 81%
20:00 +12°C° 0 mm 4 m/s 754 mmHg 83%
21:00 +12°C° 0 mm 4 m/s 754 mmHg 84%
22:00 +12°C° 0 mm 3 m/s 754 mmHg 84%
23:00 +12°C° 0 mm 3 m/s 755 mmHg 85%

28 Novembro, Sábado

Tempo Temperatura Precipitação Vento Pressão Humidade
00:00 +12°C° 0 mm 3 m/s 755 mmHg 85%
01:00 +11°C° 0 mm 3 m/s 755 mmHg 86%
02:00 +12°C° 0 mm 2 m/s 754 mmHg 87%
03:00 +12°C° 0 mm 2 m/s 755 mmHg 88%
04:00 +12°C° 0 mm 2 m/s 755 mmHg 89%
05:00 +12°C° 0 mm 2 m/s 755 mmHg 90%
06:00 +13°C° 0 mm 1 m/s 755 mmHg 88%
07:00 +13°C° 0 mm 1 m/s 755 mmHg 85%
08:00 +14°C° 0 mm 1 m/s 755 mmHg 83%
09:00 +15°C° 0 mm 1 m/s 755 mmHg 76%
10:00 +17°C° 0 mm 2 m/s 755 mmHg 70%
11:00 +18°C° 0 mm 2 m/s 755 mmHg 63%
12:00 +18°C° 0 mm 2 m/s 755 mmHg 64%
13:00 +18°C° 0 mm 3 m/s 754 mmHg 66%
14:00 +18°C° 0 mm 3 m/s 754 mmHg 67%
15:00 +17°C° 0 mm 3 m/s 754 mmHg 72%
16:00 +16°C° 0 mm 3 m/s 754 mmHg 76%
17:00 +14°C° 0 mm 3 m/s 754 mmHg 80%
18:00 +14°C° 0.5 mm 4 m/s 754 mmHg 82%
19:00 +14°C° 0.5 mm 4 m/s 753 mmHg 84%
20:00 +13°C° 0.5 mm 5 m/s 753 mmHg 86%
21:00 +13°C° 1.4 mm 4 m/s 753 mmHg 87%
22:00 +13°C° 1.4 mm 3 m/s 753 mmHg 89%
23:00 +13°C° 1.4 mm 3 m/s 752 mmHg 91%

29 Novembro, Domingo

Tempo Temperatura Precipitação Vento Pressão Humidade
00:00 +13°C° 1 mm 3 m/s 752 mmHg 90%
01:00 +13°C° 1 mm 3 m/s 752 mmHg 90%
02:00 +12°C° 1 mm 3 m/s 751 mmHg 90%
03:00 +12°C° 0.8 mm 3 m/s 751 mmHg 90%
04:00 +12°C° 0.8 mm 4 m/s 750 mmHg 91%
05:00 +12°C° 0.8 mm 4 m/s 750 mmHg 92%
06:00 +12°C° 0.1 mm 4 m/s 750 mmHg 89%
07:00 +12°C° 0.1 mm 4 m/s 750 mmHg 85%
08:00 +12°C° 0.1 mm 4 m/s 750 mmHg 82%
09:00 +13°C° 0 mm 4 m/s 750 mmHg 76%
10:00 +14°C° 0 mm 4 m/s 750 mmHg 70%
11:00 +14°C° 0 mm 3 m/s 749 mmHg 64%
12:00 +14°C° 0 mm 4 m/s 749 mmHg 64%
13:00 +15°C° 0 mm 4 m/s 749 mmHg 64%
14:00 +15°C° 0 mm 4 m/s 748 mmHg 64%
15:00 +14°C° 0.1 mm 3 m/s 748 mmHg 68%
16:00 +13°C° 0.1 mm 3 m/s 748 mmHg 72%
17:00 +13°C° 0.1 mm 2 m/s 748 mmHg 76%
18:00 +12°C° 0 mm 3 m/s 748 mmHg 77%
19:00 +11°C° 0 mm 3 m/s 749 mmHg 79%
20:00 +11°C° 0 mm 3 m/s 749 mmHg 80%
21:00 +11°C° 0 mm 3 m/s 749 mmHg 81%
22:00 +10°C° 0 mm 3 m/s 749 mmHg 83%
23:00 +10°C° 0 mm 3 m/s 749 mmHg 85%
Mostrar mais

Necessitamos do seu Consentimento

A Meteoprog e os seus Fornecedores de Serviços podem armazenar e aceder a dados pessoais como cookies, identificadores do dispositivo ou outras tecnologias semelhantes existentes no seu dispositivo e processar estes dados para personalizar conteúdos e anúncios, assim como funcionalidades nas redes sociais e análise de tráfego.

  • Armazenar e/ou aceder a informações no seu dispositivo

    Os cookies, identificadores do dispositivo ou outras informações podem ser armazenados ou acedidos no seu dispositivo, para os fins acima indicados.

  • Anúncios e conteúdos personalizados, medição de anúncios e conteúdos, dados sobre o público-alvo e desenvolvimento de produtos

    Os anúncios e os conteúdos podem ser personalizados com base num perfil. Podem ser adicionados dados adicionais para uma maior personalização dos anúncios e dos conteúdos. A eficácia dos anúncios e dos conteúdos pode ser medida. Podem ser obtidas informações sobre o público que visualizou os anúncios e os conteúdos. Estes dados podem ser usados para desenvolver ou melhorar sistemas, softwares ou a experiência do utilizador.

Ao clicar em "Eu concordo”, permitirá o uso de cookies, identificadores do dispositivo e web beacons mencionados ou outras tecnologias semelhantes. As configurações do navegador do seu dispositivo podem ser alteradas.

Para certos fins, podem ser invocados interesses legítimos ao invés de consentimento. Pode ler mais informação sobre este assunto na nossa Política de Privacidade e Cookies.